Regional Weather Roundup
Issued by NWS

Home | Current Version | Previous Version | Graphics & Text | Print | Product List | Glossary On
Versions: 1 2 3 4 5 6 7 8 9 10 11 12 13 14 15 16 17 18 19 20 21 22 23 24 25 26 27 28 29 30 31 32 33 34 35 36 37 38 39 40 41 42 43 44 45 46 47 48 49 50
000
ASUS43 KOAX 231802
RWRNE

WEATHER ROUNDUP FOR NEBRASKA
NATIONAL WEATHER SERVICE OMAHA NE
100 PM CDT TUE AUG 23 2016

NOTES: SATELLITE DATA IS BEING USED TO AUGMENT CLOUD COVER ABOVE
       12000 FEET.
       "FAIR" INDICATES FEW OR NO CLOUDS BELOW 12,000 FEET WITH NO
       SIGNIFICANT WEATHER AND/OR OBSTRUCTIONS TO VISIBILITY.

  * THESE STATIONS DO NOT REPORT WEATHER SUCH AS RAIN...SNOW OR FOG.

NEZ001>004-019>022-054>056-231900-
NEBRASKA PANHANDLE

CITY           SKY/WX    TMP DP  RH WIND       PRES   REMARKS
SCOTTSBLUFF    SUNNY     84  34  16 NW20      29.96S
6HR MIN TEMP:  53; 6HR MAX TEMP:  84;

ALLIANCE       SUNNY     82  38  20 NW18G30   29.92S
6HR MIN TEMP:  56; 6HR MAX TEMP:  82;

CHADRON        SUNNY     84  32  15 W10       29.91S
6HR MIN TEMP:  57; 6HR MAX TEMP:  84;

SIDNEY         SUNNY     84  34  16 NW17G26   29.99R
6HR MIN TEMP:  52; 6HR MAX TEMP:  84;

$$

NEZ057>060-069>072-079>082-231900-
SOUTHWEST NEBRASKA

CITY           SKY/WX    TMP DP  RH WIND       PRES   REMARKS
NORTH PLATTE   SUNNY     85  66  53 VRB6      29.83F
6HR MIN TEMP:  61; 6HR MAX TEMP:  85;

IMPERIAL       SUNNY     89  42  19 NW14      29.88S
6HR MIN TEMP:  62; 6HR MAX TEMP:  89;

LEXINGTON      MOSUNNY   83  65  54 SW9G16    29.83F
MCCOOK         SUNNY     83  64  52 CALM      29.84S
6HR MIN TEMP:  64; 6HR MAX TEMP:  84;

OGALLALA       SUNNY     90  39  16 NW15G21   29.88R
$$

NEZ005>010-023>029-035>040-094-231900-
NORTH CENTRAL NEBRASKA

CITY           SKY/WX    TMP DP  RH WIND       PRES   REMARKS
VALENTINE      SUNNY     85  49  28 NW12      29.80R
6HR MIN TEMP:  66; 6HR MAX TEMP:  86;

AINSWORTH      SUNNY     84  66  54 SW8       29.80F
BROKEN BOW     MOSUNNY   80  68  66 S9        29.82F
6HR MIN TEMP:  64; 6HR MAX TEMP:  80;

O`NEILL        CLOUDY    77  66  69 S17       29.82S
ORD            CLOUDY    79  67  66 S13       29.81F
6HR MIN TEMP:  64; 6HR MAX TEMP:  79; 6HR PCP: TRACE;

THEDFORD       SUNNY     86  61  42 SW8       29.83S
$$

NEZ041-046>049-061>064-073>077-083>087-231900-
SOUTH CENTRAL NEBRASKA

CITY           SKY/WX    TMP DP  RH WIND       PRES   REMARKS
GRAND ISLAND   PTSUNNY   83  68  60 S17       29.84F
6HR MIN TEMP:  67; 6HR MAX TEMP:  84; 6HR PCP: TRACE;

AURORA         PTSUNNY   83  71  68 S16       29.84F
HASTINGS       MOSUNNY   86  69  56 S14G25    29.84F HX  90
6HR MIN TEMP:  67; 6HR MAX TEMP:  86;

HEBRON         CLOUDY    82  72  70 S12G18    29.87F
HOLDREGE       SUNNY     84  64  50 S15G21    29.83F
KEARNEY *      PTSUNNY   84  68  58 S18       29.82F
$$

NEZ011>018-030>034-042>045-231900-
NORTHEAST NEBRASKA

CITY           SKY/WX    TMP DP  RH WIND       PRES   REMARKS
NORFOLK        CLOUDY    68  66  93 E9        29.84F
6HR MIN TEMP:  63; 6HR MAX TEMP:  68; 6HR PCP:  1.08;

ALBION         CLOUDY    75  71  86 S10       29.82F
BLAIR          CLOUDY    76  71  84 SE15G21   29.90F
FREMONT        CLOUDY    79  71  77 SE15G24   29.87F
TEKAMAH        CLOUDY    77  70  79 SE20G29   29.87F
6HR MIN TEMP:  65; 6HR MAX TEMP:  77;

WAYNE          CLOUDY    68  67  97 SE6       29.87F
$$

NEZ050>053-065>068-078-088>093-231900-
SOUTHEAST NEBRASKA

CITY           SKY/WX    TMP DP  RH WIND       PRES   REMARKS
LINCOLN        PTSUNNY   85  71  63 S18G29    29.87F HX  90
6HR MIN TEMP:  69; 6HR MAX TEMP:  85;

OMAHA EPPLEY   CLOUDY    76  70  82 SE17      29.91F
6HR MIN TEMP:  69; 6HR MAX TEMP:  76;

BEATRICE       MOSUNNY   83  72  69 S15       29.89S
FALLS CITY     CLOUDY    81  73  76 SE16      29.93F
6HR MIN TEMP:  69; 6HR MAX TEMP:  81;

NEBRASKA CITY  CLOUDY    78  73  85 S14G21    29.92F
PLATTSMOUTH    CLOUDY    79  72  81 SE13G23   29.91F
$$

NEZ044-045-051>053-067-231900-
OMAHA AREA

CITY           SKY/WX    TMP DP  RH WIND       PRES   REMARKS
OMAHA EPPLEY   CLOUDY    76  70  82 SE17      29.91F
6HR MIN TEMP:  69; 6HR MAX TEMP:  76;

BLAIR          CLOUDY    76  71  84 SE15G21   29.90F
FREMONT        CLOUDY    79  71  77 SE15G24   29.87F
MILLARD        CLOUDY    79  72  79 SE14G23   29.89F
OFFUTT AFB     PTSUNNY   78  72  81 SE20      29.90F
PLATTSMOUTH    CLOUDY    79  72  81 SE13G23   29.91F
WAHOO          CLOUDY    80  72  76 SE15G28   29.87F
$$




USA.gov is the U.S. government's official web portal to all federal, state and local government web resources and services.